SCP
0 0 0 0 0 0 0 0 0 0 0 0 0 0 0 0 0 0 0 0 0 0 0 0 0 1 2 2 1 1 0 0 0 0 0 0 0 0 0 0 0 0 0 0
0 0 0 0 0 0 0 0 0 0 0 0 0 0 0 0 0 0 0 0 0 0 0 0 0 0 1 1 1 0 0 0 0 0 0 0 0 0 0 0 0 0 0 0
0 0 0 0 0 0 0 0 0 0 0 0 0 0 0 0 0 0 0 0 0 0 0 0 0 0 0 1 0 0 0 0 0 0 0 0 0 0 0 0 0 0 0 0
0 0 0 0 0 0 0 0 0 0 0 0 0 0 0 0 0 0 0 0 0 0 0 0 0 0 0 0 0 0 0 0 0 0 0 0 0 0 0 0 1 1 0 0
0 0 0 0 0 0 0 0 0 0 0 0 0 0 0 0 0 0 0 0 0 0 0 0 0 0 0 0 0 0 0 0 0 0 0 0 0 0 0 0 0 1 1 0
0 0 0 0 0 0 0 0 0 0 0 0 0 0 0 0 0 0 0 0 0 0 0 0 0 0 0 0 0 0 0 0 0 0 0 0 0 0 0 0 0 1 1 1
0 0 0 0 0 0 0 0 0 0 0 0 0 0 0 0 0 0 0 0 0 0 0 0 0 0 0 0 0 0 0 0 0 0 0 0 0 0 0 0 0 1 1 1
0 0 0 0 0 0 0 0 0 0 0 0 0 0 0 0 0 0 0 0 0 0 0 0 0 0 0 0 0 0 0 0 0 0 0 0 0 0 0 0 0 1 1 1
0 0 0 0 0 0 0 0 0 0 0 0 0 0 0 0 0 0 0 0 0 0 0 0 0 0 0 0 0 0 0 0 0 0 0 0 0 0 0 0 0 1 1 0
0 0 0 0 0 0 0 0 0 0 0 0 0 0 0 0 0 0 0 0 0 0 0 0 0 0 0 0 0 0 0 0 0 0 0 0 0 0 0 0 0 0 0 0
0 0 0 0 0 0 0 0 0 0 0 0 0 0 0 0 0 0 0 0 0 0 0 0 0 0 0 0 0 0 0 0 0 0 0 0 0 0 0 0 0 0 0 0
0 0 0 0 0 0 0 0 0 0 0 0 0 0 0 0 0 0 0 0 0 0 0 0 0 0 0 0 0 0 0 0 0 0 0 0 0 0 0 0 0 0 0 0
0 0 0 0 0 0 0 0 0 0 0 0 0 0 0 0 0 0 0 0 0 0 0 0 0 0 0 0 0 0 0 0 0 0 0 0 0 0 0 0 0 0 0 0
0 0 0 0 0 0 0 0 0 0 0 0 0 0 0 0 0 0 0 0 0 0 0 0 0 0 0 0 0 0 0 0 0 0 0 0 0 0 0 0 0 0 0 0
0 0 0 0 0 0 0 0 0 0 0 0 0 0 0 0 0 0 0 0 0 0 0 0 0 0 0 0 0 0 0 0 0 0 0 0 0 0 0 0 0 0 0 0
0 0 0 0 0 0 0 0 0 0 0 0 0 0 0 0 0 0 0 0 0 0 0 0 0 0 0 0 0 0 0 0 0 0 0 0 0 0 0 0 0 0 0 0
0 0 0 0 0 0 0 0 0 0 0 0 0 0 0 0 0 0 0 0 0 0 0 0 0 0 0 0 0 0 0 0 0 0 0 0 0 0 0 0 0 0 0 0
0 0 0 0 0 -0 0 0 0 0 0 0 0 0 0 0 0 0 0 0 0 0 0 0 0 0 0 0 0 0 0 0 0 0 0 0 0 0 0 0 0 0 0 0
0 0 0 0 0 0 0 0 0 0 0 0 0 0 0 0 0 0 0 0 0 0 0 0 0 0 0 0 0 0 0 0 0 0 0 0 0 0 0 0 0 0 0 0
0 0 0 0 0 0 0 0 0 0 0 0 0 0 0 0 0 0 0 0 0 0 0 0 0 0 0 0 0 0 0 0 0 0 0 0 0 0 0 0 0 0 0 0
0 0 0 0 0 0 0 0 0 0 0 0 0 0 0 0 0 0 0 0 0 0 0 0 0 0 0 0 0 0 0 0 0 0 0 0 0 0 0 0 0 0 0 0
0 0 0 0 0 0 0 0 0 0 0 0 0 0 0 0 0 0 0 0 0 0 0 0 0 0 0 0 0 0 0 0 0 0 0 0 0 0 0 0 0 0 0 0
0 0 0 0 0 0 0 0 0 0 0 0 0 0 0 0 0 0 0 0 0 0 0 0 0 0 0 0 0 0 0 0 0 0 0 0 0 0 0 0 0 0 0 0
0 0 0 0 0 0 0 0 0 0 0 0 0 0 0 0 0 0 0 0 0 0 0 0 0 0 0 0 0 0 0 0 0 0 0 0 0 0 0 0 0 0 0 0
0 0 0 0 0 0 0 0 0 0 0 0 0 0 0 0 0 0 0 0 0 0 0 0 0 0 0 0 0 0 0 0 0 0 0 0 0 0 0 0 0 0 0 0
0 0 0 0 0 0 0 0 0 0 0 0 0 0 0 0 0 0 0 0 0 0 0 0 0 0 0 0 0 0 0 0 0 0 0 0 0 0 0 0 0 0 0 0
0 0 0 0 0 0 0 0 0 0 0 0 0 0 0 0 0 0 0 0 0 0 0 0 0 0 0 0 0 0 0 0 0 0 0 0 0 0 0 0 0 0 0 0
Wind_Speed
5 5 2 3 4 2 2 3 5 6 5 5 6 6 6 5 6 6 7 7 6 5 4 4 4 3 2 1 0 1 2 2 2 2 2 2 2 2 3 3 3 3 3 3
3 2 2 3 4 3 3 2 4 5 5 5 6 5 5 6 6 6 7 7 7 6 5 4 4 4 3 2 1 1 2 2 1 1 2 2 2 2 2 2 2 3 3 3
4 3 4 4 3 1 1 2 1 3 5 6 7 7 6 5 5 6 7 7 7 6 4 4 4 3 3 3 2 0 1 1 1 1 1 2 2 2 2 3 2 3 3 4
2 3 3 3 2 2 2 2 3 3 6 7 7 7 5 4 5 7 7 7 7 6 5 5 4 3 3 2 2 1 0 0 1 1 1 1 2 2 2 2 2 3 3 3
1 1 5 2 3 4 2 1 4 5 8 9 8 5 3 5 5 5 6 6 5 5 5 4 4 3 2 2 2 2 1 1 1 1 2 2 2 2 2 2 2 3 3 3
1 2 4 3 5 6 1 2 4 6 8 9 8 5 5 7 8 7 6 5 5 5 4 4 4 3 2 2 2 2 2 2 2 2 2 3 3 3 2 2 2 2 2 2
2 3 5 3 6 4 1 5 7 6 7 6 4 5 7 8 8 7 6 6 6 5 4 4 4 3 3 3 3 3 3 2 2 2 3 3 3 2 2 2 2 2 2 3
1 3 5 3 4 2 3 5 5 6 6 6 7 7 7 7 7 7 7 6 6 5 5 5 4 3 4 4 4 3 3 2 2 2 2 2 2 2 2 3 2 2 2 3
4 4 2 1 0 2 3 4 5 5 7 7 7 7 7 7 7 6 6 6 6 5 6 5 5 3 4 5 4 3 3 3 3 3 2 2 2 2 2 3 3 3 3 3
2 3 3 3 2 3 3 4 6 6 7 6 6 7 7 6 6 6 6 6 6 6 6 6 6 5 4 4 4 3 3 3 3 2 2 2 2 2 3 3 3 3 3 3
3 4 5 3 3 4 5 5 6 6 5 6 6 6 6 6 6 6 7 6 6 6 6 7 6 6 5 4 3 3 3 3 3 2 2 2 2 3 3 4 5 4 4 4
4 3 3 6 5 4 5 6 6 6 7 6 5 6 6 6 6 6 6 6 6 6 6 7 6 6 5 4 3 3 3 3 2 2 2 2 2 3 5 5 7 7 7 5
3 4 4 5 5 4 5 6 6 6 6 6 5 5 5 6 6 6 6 7 6 6 7 7 6 6 6 5 4 3 3 3 3 2 2 2 3 2 3 4 6 7 7 8
3 3 4 4 5 6 6 6 5 5 5 5 5 5 5 6 6 6 7 7 6 6 6 6 6 6 6 5 4 4 4 4 4 3 3 3 3 3 3 3 3 4 5 7
4 3 4 5 5 5 5 5 5 6 6 6 5 5 6 6 7 7 7 7 7 6 6 6 6 6 5 4 4 4 4 3 3 3 3 3 3 3 3 4 3 3 3 4
5 5 4 4 5 6 6 5 5 6 6 7 7 7 7 7 7 7 7 6 6 7 7 6 6 6 5 4 4 4 4 6 5 3 3 3 3 3 3 3 3 3 3 3
3 4 5 6 6 6 6 6 6 6 6 7 7 7 7 7 7 7 7 6 6 6 7 6 7 6 5 4 4 4 3 4 6 4 3 3 3 3 3 3 3 4 4 5
3 4 4 5 5 6 7 6 6 6 6 7 7 7 6 6 7 8 8 7 7 6 6 6 6 6 5 5 4 3 3 3 3 3 3 3 3 3 3 3 4 4 4 4
4 4 4 5 5 5 5 6 6 6 6 6 6 6 6 6 6 7 7 6 6 7 7 6 10 7 5 6 6 3 3 3 3 3 3 5 4 3 3 3 3 3 3 3
4 4 4 5 5 4 5 6 6 6 6 5 6 6 7 7 6 7 6 6 5 5 6 8 7 6 5 5 7 3 3 3 3 3 3 3 3 3 3 3 3 3 3 3
5 5 5 5 6 6 5 5 5 6 6 5 5 6 7 7 6 6 5 6 6 6 7 9 6 5 5 5 5 2 2 2 3 3 3 3 3 3 3 3 3 3 3 3
5 5 5 5 6 6 6 5 5 6 6 5 5 6 6 7 6 6 5 5 6 10 7 4 4 7 7 6 2 2 2 2 3 3 3 3 3 3 3 3 3 3 3 3
5 5 5 5 6 6 6 5 5 5 5 6 6 6 6 6 5 5 6 5 5 9 7 4 8 10 10 4 2 2 3 3 3 3 3 3 3 3 3 3 3 3 3 3
4 5 5 5 5 5 6 6 6 5 5 6 5 6 6 5 5 4 5 9 11 11 6 8 12 11 9 3 3 3 3 3 3 3 3 3 3 3 3 3 3 3 3 4
4 4 4 5 4 5 6 6 6 5 6 5 6 5 4 4 4 5 5 6 10 9 6 8 11 11 6 3 3 3 3 3 4 3 3 3 3 3 3 3 3 4 4 4
4 4 4 4 4 4 4 4 4 5 5 5 5 5 4 4 5 5 4 5 7 8 6 4 5 6 4 4 4 4 4 4 5 4 4 4 4 4 4 4 4 4 4 4
4 4 4 4 4 4 4 4 4 5 5 5 6 5 5 5 5 5 5 5 5 5 4 4 4 4 4 4 4 4 4 4 4 4 4 4 4 4 4 4 4 4 4 4
Wind_Direction
259 278 273 282 296 295 223 229 232 263 275 312 320 317 328 341 347 0 2 358 357 355 354 358 355 351 343 326 191 157 159 169 185 183 177 173 176 180 182 189 195 197 200 207
276 282 326 317 326 300 281 281 265 285 288 333 327 338 345 346 347 350 346 346 349 353 355 352 344 343 347 333 317 163 171 185 180 171 179 193 198 187 182 191 199 199 206 209
276 310 345 309 307 289 316 3 315 279 303 333 336 336 332 332 338 334 336 341 343 342 339 336 329 329 329 326 321 280 176 176 173 177 195 209 211 197 197 200 199 208 213 212
293 3 271 255 21 35 101 41 16 343 333 335 321 310 306 331 338 331 334 335 333 333 334 331 330 331 331 336 346 341 268 223 208 195 214 218 210 215 217 208 205 213 224 227
174 264 272 306 8 360 318 317 17 349 336 335 330 314 312 355 348 327 323 322 322 325 323 327 331 330 334 339 347 348 323 291 266 231 221 221 227 230 222 216 218 219 226 225
167 226 254 297 325 322 287 272 5 350 334 333 342 333 312 338 335 329 327 325 325 325 330 334 329 332 336 329 332 318 302 285 268 246 228 227 230 231 228 223 224 236 248 237
213 235 262 305 318 347 82 294 325 325 321 322 309 275 295 314 319 324 325 325 328 329 330 324 323 326 317 311 304 301 302 301 288 262 246 232 225 225 221 225 226 225 242 252
198 224 262 344 22 53 273 306 313 311 310 305 295 295 302 311 317 325 328 331 333 332 326 322 322 321 312 307 305 308 306 303 291 273 260 249 217 222 216 209 213 222 229 247
204 219 265 5 238 292 312 305 306 308 306 305 302 304 311 315 319 323 326 328 329 326 322 322 321 316 304 307 312 313 308 298 290 285 274 261 225 215 212 209 214 225 227 238
273 272 293 295 322 330 324 307 309 310 310 310 304 307 312 316 321 323 326 326 326 324 322 322 322 317 301 303 309 309 304 298 290 281 276 263 250 228 220 220 220 225 229 234
272 296 321 303 311 316 322 321 318 317 316 312 308 309 312 314 317 318 320 322 322 320 317 316 318 316 313 307 303 303 298 294 292 282 268 263 258 240 238 228 224 226 225 225
250 269 272 285 303 320 321 319 318 318 318 317 311 305 310 309 310 311 314 316 318 317 316 314 317 316 316 309 296 288 296 297 288 281 273 273 273 277 263 258 255 253 252 249
273 298 286 289 306 319 314 312 316 313 308 312 314 308 309 308 310 312 313 313 312 312 311 311 313 313 314 311 306 288 279 283 282 278 271 270 266 265 276 277 266 264 263 263
315 332 310 310 308 317 317 319 321 320 316 311 309 310 308 308 310 312 311 310 310 309 308 307 307 306 308 308 305 298 286 281 281 270 263 258 259 258 257 262 269 270 270 268
320 319 292 302 315 324 327 327 328 326 326 324 321 314 312 311 310 309 309 312 315 312 309 308 306 306 308 306 308 301 294 284 275 268 263 258 258 257 254 256 259 269 278 275
314 321 318 317 317 323 326 324 319 317 320 320 320 317 313 308 306 308 311 317 316 313 312 310 307 307 310 310 312 306 296 298 302 282 269 265 260 256 255 254 255 257 260 266
326 320 317 315 314 315 313 308 303 305 311 313 314 315 317 318 318 319 320 320 312 305 304 307 309 311 313 310 304 299 298 300 309 307 290 279 269 260 256 254 254 257 260 262
267 273 278 286 295 302 307 310 308 308 307 308 312 314 316 317 314 314 317 319 319 316 315 316 313 315 316 312 305 298 297 299 299 293 291 286 276 262 254 253 255 259 266 269
301 297 296 296 296 295 298 303 305 306 307 310 312 311 309 308 306 309 314 317 318 316 314 312 321 328 317 311 314 296 296 298 298 297 295 296 302 286 268 261 259 258 262 265
313 313 310 309 310 306 303 304 306 308 308 310 311 312 314 314 313 313 313 309 301 296 302 311 317 315 309 303 311 299 297 296 298 299 300 296 291 288 282 274 267 263 262 260
310 311 310 312 311 310 306 305 306 306 309 312 311 309 309 311 313 313 311 312 315 315 312 319 322 311 307 308 315 309 303 301 300 297 296 294 294 292 291 292 289 283 278 275
303 303 304 306 307 309 309 306 302 303 307 311 311 309 309 311 314 312 301 295 306 318 323 314 311 314 322 329 333 323 310 302 298 297 295 295 294 293 291 292 291 293 293 288
293 295 299 301 300 301 306 307 302 301 304 307 309 310 308 305 308 310 312 313 313 319 325 319 322 327 335 347 339 318 308 305 300 296 294 294 292 289 287 287 285 286 285 284
293 296 298 299 301 305 308 309 307 304 300 299 299 301 304 307 307 302 299 312 323 325 326 324 331 334 341 346 327 317 309 305 300 295 294 293 292 292 290 287 284 283 280 280
293 294 298 305 306 302 303 308 310 309 309 307 307 308 306 300 298 305 309 312 319 326 325 325 331 335 339 326 320 314 309 304 301 303 301 300 297 294 289 286 283 281 279 277
295 295 293 290 291 298 304 308 309 311 313 312 311 313 315 311 306 305 308 311 312 321 324 319 320 324 321 315 312 310 308 310 316 317 310 305 299 295 292 290 287 283 280 278
297 300 302 305 305 304 305 305 305 307 309 307 307 313 316 315 315 314 315 315 315 315 313 313 314 314 314 313 312 311 309 307 306 305 304 300 297 294 292 289 287 285 282 281